Weather in Suzgarye

Russia / Republic of Mordovia     54°07′09″N   44°55′21″E
temp.,
°C
wind,
m/s
gust,
m/s
humid.,
%
clouds,
%
prec.,
mm/h
press.,
hPa
HPBL,
m
19 september, sun
sun1900:00+4nne1171100 0.0 102510
03:00+3e2275100 0.0 102514
06:00+2e2278100 0.0 102644
09:00+7ese4555100 0.0 1026548
12:00+10ese344499 0.0 10251094
15:00+11ese3440100 0.0 10241201
18:00+9ene3648100 0.0 1024159
21:00+8e51051100 0.0 1024341
20 september, mon
mon2000:00+7ese4951100 0.0 1024310
03:00+7ese51152100 0.1 1022443
06:00+6ese71262100 0.2 1023498
09:00+6ese61270100 0.7 1023558
12:00+6ese71379100 1.6 1023790
15:00+6ese71381100 3.4 1022679
18:00+6ese71384100 2.1 1022659
21:00+6ese71484100 2.4 1022619
21 september, tue
tue2100:00+7ese81580100 0.1 1021618
03:00+7ese71480100 0.1 1020659
06:00+7ese71383100 0.3 1019637
09:00+7ese71386100 0.6 1019587
12:00+8ese7118599 0.4 1019658
15:00+9ese71076100 0.4 1018729
18:00+8ese697797 0.0 1017543
21:00+6e6127696 0.0 1017366
22 september, wed
wed2200:00+6ese51087100 1.2 1016377
03:00+7ese5991100 3.1 1015306
06:00+7ese4989100 0.8 1015295
09:00+7ese3694100 2.3 1016250
12:00+8ese3494100 1.1 1016214
15:00+8ene3595100 1.8 1017224
18:00+8ene2296100 0.3 101784
21:00+9e129691 0.3 101743
23 september, thu
thu2300:00+9ese229897 0.0 101755
03:00+10ese3698100 0.0 1017207
06:00+9ese379787 0.0 1017242
09:00+12se588991 0.0 1017485
12:00+15se5777100 0.0 1017689
15:00+13se61186100 0.0 1017683
18:00+12sse71388100 0.0 1018611
21:00+10se61289100 0.0 1018566